ACA124 CYUL-CYYZ

Flight info

Callsign ACA124
Flight time N/A
Altitude 32000
Route BOBKI DCT MELTI DCT TORNI RAGID6
Aircraft B77W/H-SDE1E2E3FGHIJ2J3J4J5M1RWXY/LB1D1

Departure

Time 2026-05-07 01:45
Airport Montreal / Pierre Elliott Trudeau International Airport (CYUL)

Arrival

Time N/A
Airport Toronto Pearson International Airport (CYYZ)
Time Latitude Longitude Altitude Speed Heading
2026-05-07 01:20 45.45852 -73.75825 110 ft 0 kts 60°
2026-05-07 01:31 45.45846 -73.75841 109 ft 2 kts 61°
2026-05-07 01:31 45.45838 -73.75861 107 ft 2 kts 61°
2026-05-07 01:31 45.45830 -73.75882 108 ft 2 kts 62°
2026-05-07 01:32 45.45823 -73.75903 107 ft 2 kts 62°
2026-05-07 01:32 45.45812 -73.75920 107 ft 2 kts 334°
2026-05-07 01:32 45.45797 -73.75910 107 ft 2 kts 323°
2026-05-07 01:32 45.45786 -73.75893 107 ft 2 kts 302°
2026-05-07 01:33 45.45779 -73.75879 107 ft 1 kts 306°
2026-05-07 01:33 45.45778 -73.75877 107 ft 0 kts 306°
2026-05-07 01:35 45.45781 -73.75882 107 ft 4 kts 308°
2026-05-07 01:35 45.45869 -73.75939 110 ft 18 kts 347°
2026-05-07 01:36 45.45968 -73.75954 110 ft 13 kts 356°
2026-05-07 01:36 45.46063 -73.75957 109 ft 14 kts 359°
2026-05-07 01:36 45.46123 -73.75866 109 ft 14 kts 79°
2026-05-07 01:36 45.46130 -73.75725 110 ft 14 kts 87°
2026-05-07 01:37 45.46134 -73.75583 109 ft 15 kts 88°
2026-05-07 01:37 45.46137 -73.75438 110 ft 15 kts 88°
2026-05-07 01:37 45.46141 -73.75293 111 ft 15 kts 88°
2026-05-07 01:37 45.46146 -73.75148 115 ft 15 kts 88°
2026-05-07 01:38 45.46150 -73.74996 114 ft 16 kts 88°
2026-05-07 01:38 45.46155 -73.74841 115 ft 16 kts 87°
2026-05-07 01:38 45.46159 -73.74685 113 ft 16 kts 88°
2026-05-07 01:38 45.46129 -73.74534 110 ft 16 kts 107°
2026-05-07 01:39 45.46127 -73.74376 110 ft 16 kts 87°
2026-05-07 01:39 45.46134 -73.74217 111 ft 16 kts 86°
2026-05-07 01:39 45.46149 -73.74057 110 ft 17 kts 59°
2026-05-07 01:39 45.46232 -73.73934 108 ft 17 kts 42°
2026-05-07 01:40 45.46320 -73.73818 110 ft 17 kts 43°
2026-05-07 01:40 45.46408 -73.73703 113 ft 17 kts 43°
2026-05-07 01:40 45.46466 -73.73626 114 ft 17 kts 42°
2026-05-07 01:40 45.46555 -73.73511 113 ft 17 kts 43°
2026-05-07 01:41 45.46643 -73.73396 113 ft 17 kts 43°
2026-05-07 01:41 45.46741 -73.73266 112 ft 21 kts 43°
2026-05-07 01:41 45.46851 -73.73123 116 ft 21 kts 43°
2026-05-07 01:41 45.46959 -73.72980 119 ft 21 kts 42°
2026-05-07 01:42 45.47068 -73.72838 121 ft 21 kts 42°
2026-05-07 01:42 45.47177 -73.72695 121 ft 21 kts 43°
2026-05-07 01:42 45.47288 -73.72549 120 ft 22 kts 42°
2026-05-07 01:42 45.47402 -73.72400 122 ft 22 kts 43°
2026-05-07 01:43 45.47515 -73.72252 124 ft 22 kts 43°
2026-05-07 01:43 45.47629 -73.72103 128 ft 22 kts 43°
2026-05-07 01:43 45.47739 -73.71958 126 ft 21 kts 43°
2026-05-07 01:43 45.47805 -73.71829 126 ft 11 kts 94°
2026-05-07 01:44 45.47774 -73.71751 125 ft 2 kts 130°
2026-05-07 01:44 45.47771 -73.71745 125 ft 1 kts 130°
2026-05-07 01:44 45.47747 -73.71707 126 ft 12 kts 134°
2026-05-07 01:44 45.47678 -73.71647 127 ft 10 kts 200°
2026-05-07 01:45 45.47584 -73.71761 130 ft 38 kts 222°
2026-05-07 01:45 45.47158 -73.72320 119 ft 126 kts 222°
2026-05-07 01:45 45.46352 -73.73376 309 ft 174 kts 223°
2026-05-07 01:45 45.45425 -73.74573 1149 ft 177 kts 224°
2026-05-07 01:46 45.44596 -73.75743 2356 ft 165 kts 231°
2026-05-07 01:46 45.43785 -73.77026 2877 ft 190 kts 232°
2026-05-07 01:46 45.42835 -73.78562 3173 ft 222 kts 233°
2026-05-07 01:46 45.42092 -73.80577 3520 ft 239 kts 264°
2026-05-07 01:47 45.42092 -73.82981 4251 ft 248 kts 273°
2026-05-07 01:47 45.42143 -73.85447 5172 ft 255 kts 272°
2026-05-07 01:47 45.42167 -73.87988 6219 ft 258 kts 271°
2026-05-07 01:47 45.42179 -73.90572 7293 ft 257 kts 270°
2026-05-07 01:48 45.42180 -73.93089 8347 ft 258 kts 269°
2026-05-07 01:48 45.42174 -73.95652 9384 ft 260 kts 269°
2026-05-07 01:48 45.42162 -73.98237 10350 ft 263 kts 268°
2026-05-07 01:48 45.42144 -74.00946 10859 ft 286 kts 268°
2026-05-07 01:49 45.42119 -74.03943 11125 ft 317 kts 268°
2026-05-07 01:49 45.42092 -74.07132 11990 ft 327 kts 268°
2026-05-07 01:49 45.42063 -74.10342 13208 ft 329 kts 268°
2026-05-07 01:49 45.42032 -74.13652 14434 ft 331 kts 267°
2026-05-07 01:50 45.41999 -74.16948 15539 ft 335 kts 266°
2026-05-07 01:50 45.41964 -74.20284 16620 ft 340 kts 266°
2026-05-07 01:50 45.41927 -74.23622 17687 ft 344 kts 266°
2026-05-07 01:50 45.41889 -74.27061 18667 ft 349 kts 265°
2026-05-07 01:51 45.41849 -74.30550 19577 ft 356 kts 265°
2026-05-07 01:51 45.41807 -74.34105 20451 ft 362 kts 265°
2026-05-07 01:51 45.41763 -74.37722 21334 ft 368 kts 265°
2026-05-07 01:51 45.41669 -74.41381 22209 ft 372 kts 262°
2026-05-07 01:52 45.41344 -74.45053 23059 ft 376 kts 257°
2026-05-07 01:52 45.40767 -74.48703 23823 ft 380 kts 254°
2026-05-07 01:52 45.40145 -74.52337 24507 ft 385 kts 253°
2026-05-07 01:52 45.39507 -74.56073 25205 ft 391 kts 253°
2026-05-07 01:53 45.38865 -74.59853 25878 ft 396 kts 253°
2026-05-07 01:53 45.38217 -74.63680 26529 ft 401 kts 253°
2026-05-07 01:53 45.37559 -74.67574 27194 ft 406 kts 253°
2026-05-07 01:53 45.36899 -74.71483 27989 ft 406 kts 253°
2026-05-07 01:54 45.36243 -74.75373 29003 ft 403 kts 253°
2026-05-07 01:54 45.35590 -74.79238 29977 ft 400 kts 253°
2026-05-07 01:54 45.34938 -74.83076 30769 ft 398 kts 253°
2026-05-07 01:54 45.34287 -74.86892 31519 ft 397 kts 254°
2026-05-07 01:55 45.33631 -74.90716 31871 ft 396 kts 254°
2026-05-07 01:55 45.32326 -74.98287 31847 ft 392 kts 254°
2026-05-07 01:56 45.31025 -75.05797 31856 ft 392 kts 254°
2026-05-07 01:56 45.29724 -75.13281 31861 ft 394 kts 254°
2026-05-07 01:57 45.28405 -75.20839 31867 ft 394 kts 254°
2026-05-07 01:57 45.27082 -75.28392 31865 ft 392 kts 254°
2026-05-07 01:58 45.25764 -75.35886 31873 ft 390 kts 254°
2026-05-07 01:58 45.24449 -75.43334 31870 ft 388 kts 254°
2026-05-07 01:59 45.23140 -75.50712 31861 ft 387 kts 254°
2026-05-07 01:59 45.22044 -75.56868 31867 ft 387 kts 254°